Location: Downe
(51.3167°N, 0.0500°E)
Time: 12:37:49
(UTC+00:00)

Cosmos 2360 Rocket - Pass Details

Date: 17 November 2019
Orbit: 832 x 847 km, 71.0° (Epoch: 14 December)

Event Time Altitude Azimuth Distance (km) Brightness Sun altitude
Exits shadow 04:49:22 16° 341° (NNW) 2,070 4.0 -23.2°
Maximum altitude 04:53:44 49° 52° (NE) 1,081 3.0 -22.5°
Drops below altitude 10° 04:59:14 10° 127° (SE) 2,468 5.4 -21.7°
Sets 05:01:45 0° 133° (SE) 3,399 6.1 -21.3°
